Location: Unspecified
(58.9933°N, 5.6375°E)
Time: 20:48:49
(UTC+01:00)

Cosmos 1674 - Visible Passes

Search period start: 21 January 2017 00:00
Search period end: 31 January 2017 00:00
Orbit: 500 x 522 km, 82.5° (Epoch: 21 January)

Date Brightness Start Highest point End Pass type
(mag) Time Alt. Az. Time Alt. Az. Time Alt. Az.
21 Jan 3.6 18:45:54 10° SSW 18:49:39 49° WNW 18:53:28 10° N visible
21 Jan 5.9 20:25:24 10° WNW 20:26:17 11° NW 20:27:11 10° NW visible
22 Jan 3.3 18:29:31 10° SSW 18:33:20 59° WNW 18:37:11 10° N visible
22 Jan 5.8 20:08:17 10° WNW 20:09:51 12° NW 20:11:26 10° NNW visible
23 Jan 3.0 18:13:09 10° SSW 18:17:00 70° WNW 18:20:54 10° N visible
23 Jan 5.7 19:51:24 10° W 19:53:25 14° NW 19:55:27 10° NNW visible
24 Jan 2.8 17:56:49 10° SSW 18:00:41 83° WNW 18:04:36 10° NNE visible
24 Jan 5.6 19:34:37 10° W 19:37:00 15° NW 19:39:24 10° NNW visible
25 Jan 2.7 17:40:31 10° S 17:44:23 84° ESE 17:48:18 10° NNE visible
25 Jan 5.5 19:17:55 10° W 19:20:35 18° WNW 19:23:16 10° NNW visible
26 Jan 2.7 17:24:14 10° S 17:28:04 70° E 17:31:58 10° NNE visible
26 Jan 5.3 19:01:15 10° WSW 19:04:10 20° WNW 19:07:06 10° N visible
27 Jan 5.1 18:44:39 10° WSW 18:47:47 23° WNW 18:50:55 10° N visible
28 Jan 4.9 18:28:05 10° WSW 18:31:23 26° WNW 18:34:42 10° N visible
29 Jan 4.6 18:11:33 10° SW 18:15:00 30° WNW 18:18:28 10° N visible
30 Jan 4.4 17:55:03 10° SW 17:58:37 34° WNW 18:02:14 10° N visible
